Find Intelsat IS-14

NORAD ID: 36097 Int'l Des: 2009-064 Owner: INTELD Country: US operational
HEOCIRCULARGSOGEO

Live-Position

3D-Globus wird geladen...

Über Intelsat IS-14

Beschreibung wird geladen...

Nächste Überflüge

Passes for default location (London). Set your location on the main map for personalized predictions.

Höhenverlauf

Loading altitude history...

Zweizeiliger Elementsatz

1 36097U 09064A 26121.40489403 -.00000269 00000-0 00000+0 0 9995
2 36097 0.0036 341.1453 0002595 61.8615 277.0996 1.00272991 60136
Epoch: 1. Mai 2026 • Age: 13 hours

Aktueller Status

Höhe 35791.1 km
Geschwindigkeit 3.07 km/s
Subsatellitenpunkt -0.01°S, 44.97°W
Startdatum 23. Nov. 2009
Alter 16.4 years
Typ communications

Technische Details

Klassifizierung Payload
Masse 5663.00 kg
Trockenmasse 2517.00 kg
Gesamtmasse 5663.00 kg
Länge 7.50 m
Durchmesser 2.90 m
Spannweite 32.50 m
Form Box + 2 Pan
Hersteller LOR
Bus-Typ SSL-1300
Phasenstatus In Orbit
Besitzer/Staat INTELD/US

Most Searched